"TOA5","MOW","CPU:UNC_MeetingWaters","DataHourly"
"TIMESTAMP","SondeTempC","SpCond","DOSat","DOmg","pH","Turb","BattVolt_Min"
"TS","","","","","","",""
"","Smp","Smp","Smp","Smp","Smp","Smp","Min"
"2009-09-01 04:00:00",19.6800003052,0.00300000002608,101.0,11.5,6.88000011444,-3.70000004768,12.8199996948
"2009-09-01 05:00:00",19.2199993134,0.00200000009499,100.199996948,11.1000003815,6.88999986649,-2.09999990463,12.7899999619
"2009-09-01 06:00:00",18.7600002289,0.00200000009499,99.8000030518,9.60000038147,6.92000007629,-3.0,12.779999733
"2009-09-01 07:00:00",18.25,0.00200000009499,100.800003052,9.10000038147,6.92000007629,-4.09999990463,12.7600002289
"2009-09-01 08:00:00",17.7900009155,0.00200000009499,100.099998474,7.19999980927,6.96000003815,-2.59999990463,12.7399997711
"2009-09-01 09:00:00",17.3600006104,0.00200000009499,100.599998474,8.0,6.94000005722,-1.39999997616,12.720000267
"2009-09-01 10:00:00",16.9599990845,0.00200000009499,100.900001526,6.5,6.96999979019,-2.70000004768,12.6899995804
"2009-09-01 11:00:00",17.0699996948,0.00200000009499,101.0,5.0,7.0,-5.90000009537,12.6899995804
"2009-09-01 12:00:00",17.5900001526,0.00200000009499,100.800003052,8.39999961853,6.94000005722,-7.0,12.7100000381
"2009-09-01 13:00:00",18.5599994659,0.0010000000475,99.4000015259,19.2000007629,6.75,-7.0,12.9499998093
"2009-09-01 14:00:00",19.5100002289,0.0,98.4000015259,33.5,6.5,-7.09999990463,13.3400001526
"2009-09-01 15:00:00",21.6599998474,0.0,98.1999969482,39.4000015259,6.40000009537,-7.30000019073,13.5500001907
"2009-09-01 16:00:00",24.8799991608,0.0,98.4000015259,42.5999984741,6.34999990463,-7.40000009537,13.8999996185
"2009-09-01 17:00:00",27.9500007629,0.0,98.1999969482,32.7999992371,6.51999998093,-7.59999990463,13.1499996185
"2009-09-01 18:00:00",27.4099998474,0.0,99.4000015259,46.5999984741,6.28999996185,-7.5,13.1300001144
"2009-09-01 19:00:00",27.4500007629,0.0,98.6999969482,47.5999984741,6.26999998093,-7.40000009537,13.1300001144
"2009-09-01 20:00:00",24.1100006104,0.0,100.099998474,43.7000007629,6.32999992371,-7.19999980927,13.3100004196
"2009-09-01 21:00:00",22.9599990845,0.0,100.5,40.7999992371,6.38000011444,-7.19999980927,13.2100000381
"2009-09-01 22:00:00",21.9099998474,0.0,100.5,37.9000015259,6.42000007629,-7.09999990463,13.0399999619
"2009-09-01 23:00:00",20.4599990845,0.0,101.5,35.2000007629,6.46999979019,-7.0,12.9600000381
"2009-09-02 00:00:00",19.3500003815,0.0,101.5,28.8999996185,6.57999992371,-7.0,12.9300003052
"2009-09-02 01:00:00",18.9099998474,0.0,102.0,29.7999992371,6.55999994278,-6.90000009537,12.9099998474
"2009-09-02 02:00:00",18.3400001526,0.0,101.599998474,27.7000007629,6.59999990463,-6.90000009537,12.8900003433
"2009-09-02 03:00:00",17.6299991608,0.0,101.599998474,25.8999996185,6.63000011444,-6.90000009537,12.8800001144
"2009-09-02 04:00:00",17.1800003052,0.0,102.0,21.0,6.71000003815,-6.80000019073,12.8599996567
"2009-09-02 05:00:00",16.4599990845,0.0,101.599998474,17.8999996185,6.76999998093,-6.80000019073,12.8400001526
"2009-09-02 06:00:00",15.7299995422,0.0,101.900001526,19.0,6.75,-6.80000019073,12.8100004196
"2009-09-02 07:00:00",15.5,0.0,101.900001526,15.1999998093,6.80999994278,-6.80000019073,12.7899999619
"2009-09-02 08:00:00",15.5200004578,0.0,101.699996948,11.1999998093,6.88999986649,-6.80000019073,12.8000001907
"2009-09-02 09:00:00",15.1999998093,0.0,102.0,10.1999998093,6.90000009537,-6.80000019073,12.779999733
"2009-09-02 10:00:00",15.1300001144,0.0,102.0,6.90000009537,6.96000003815,-6.80000019073,12.779999733
"2009-09-02 11:00:00",15.5900001526,0.0,101.900001526,9.60000038147,6.90999984741,-6.80000019073,12.7399997711
"2009-09-02 12:00:00",16.6200008392,0.0,101.699996948,15.1000003815,6.82000017166,-6.90000009537,12.8000001907
"2009-09-02 13:00:00",17.9400005341,0.0,101.0,20.7000007629,6.71999979019,-6.80000019073,13.0699996948
"2009-09-02 14:00:00",19.3999996185,0.0,100.5,22.1000003815,6.69999980927,-6.90000009537,13.3900003433
"2009-09-02 15:00:00",21.0599994659,0.0,100.099998474,29.2000007629,6.57999992371,-7.0,14.0399999619
"2009-09-02 16:00:00",21.9899997711,0.0,95.8000030518,29.7000007629,6.57000017166,-7.09999990463,14.0399999619
"2009-09-02 17:00:00",23.0799999237,0.0,96.5999984741,32.5999984741,6.51999998093,-7.09999990463,14.0100002289
"2009-09-02 18:00:00",24.2999992371,0.0,97.8000030518,33.2000007629,6.51000022888,-7.19999980927,13.25
"2009-09-02 19:00:00",24.4300003052,0.0,102.199996948,37.5999984741,6.44000005722,-1.79999995232,13.9600000381
"2009-09-02 20:00:00",21.8400001526,0.0,98.0,32.4000015259,6.51999998093,-3.40000009537,13.6800003052
"2009-09-02 21:00:00",21.3999996185,0.0,98.1999969482,29.0,6.57999992371,-7.30000019073,13.6400003433
"2009-09-02 22:00:00",20.9099998474,0.0,98.9000015259,26.2999992371,6.63000011444,-7.30000019073,13.1000003815
"2009-09-02 23:00:00",19.9099998474,0.0,99.4000015259,25.6000003815,6.63999986649,-7.30000019073,12.9600000381
"2009-09-03 00:00:00",18.9400005341,0.0,100.400001526,23.3999996185,6.67000007629,-7.19999980927,12.9200000763
"2009-09-03 01:00:00",18.0799999237,0.0,100.5,17.5,6.78000020981,-7.0,12.9099998474
"2009-09-03 02:00:00",17.5900001526,0.0,100.300003052,11.8999996185,6.86999988556,-7.09999990463,12.8800001144
"2009-09-03 03:00:00",17.2700004578,0.0,99.8000030518,10.1000003815,6.90999984741,-6.80000019073,12.8599996567
"2009-09-03 04:00:00",17.2399997711,0.0,101.099998474,8.39999961853,6.94000005722,-7.0,12.8400001526
"2009-09-03 05:00:00",17.0699996948,0.0,100.5,6.09999990463,6.98000001907,-7.0,12.8199996948
"2009-09-03 06:00:00",16.9699993134,0.0,100.300003052,3.0,7.03000020981,-6.59999990463,12.7899999619
"2009-09-03 07:00:00",16.6000003815,0.0,99.9000015259,1.60000002384,7.05999994278,-7.0,12.7700004578
"2009-09-03 08:00:00",16.2700004578,0.0,100.300003052,2.0,7.05000019073,-7.0,12.75
"2009-09-03 09:00:00",16.1100006104,0.0,100.300003052,-0.699999988079,7.09999990463,-7.0,12.7399997711
"2009-09-03 10:00:00",16.0200004578,0.0010000000475,100.199996948,-3.90000009537,7.15000009537,-7.0,12.7299995422
"2009-09-03 11:00:00",16.3700008392,0.0010000000475,100.300003052,-5.5,7.17999982834,-7.0,12.7100000381
"2009-09-03 12:00:00",17.0699996948,0.0010000000475,99.8000030518,-4.69999980927,7.17000007629,-7.0,12.7600002289
"2009-09-03 13:00:00",18.3999996185,0.0,99.0999984741,8.30000019073,6.94000005722,-7.09999990463,13.1099996567
"2009-09-03 14:00:00",19.8400001526,0.0,99.1999969482,21.7000007629,6.69999980927,-7.19999980927,13.470000267
"2009-09-03 15:00:00",22.1200008392,0.0,94.1999969482,26.8999996185,6.61999988556,-7.30000019073,13.9099998474
"2009-09-03 16:00:00",24.4799995422,0.0,93.1999969482,30.1000003815,6.55999994278,-7.40000009537,13.8800001144
"2009-09-03 17:00:00",28.3199996948,0.0,90.1999969482,35.4000015259,6.48000001907,-7.80000019073,13.1300001144
"2009-09-03 18:00:00",26.7999992371,0.0,91.5,35.7000007629,6.46999979019,-7.69999980927,13.1300001144
"2009-09-03 19:00:00",27.6700000763,0.0,92.5,38.7000007629,6.42000007629,-7.5,13.1199998856
"2009-09-03 20:00:00",24.0900001526,0.0,95.5,33.4000015259,6.51000022888,-7.09999990463,13.3900003433
"2009-09-03 21:00:00",22.7900009155,0.0,98.1999969482,34.4000015259,6.48999977112,-7.0,13.1899995804
"2009-09-03 22:00:00",21.7399997711,0.0,99.5,30.0,6.55999994278,-7.0,13.0
"2009-09-03 23:00:00",20.5799999237,0.0,100.099998474,26.2000007629,6.63000011444,-6.90000009537,12.9300003052
"2009-09-04 00:00:00",19.5,0.0,100.0,18.2000007629,6.76999998093,-6.90000009537,12.9099998474
"2009-09-04 01:00:00",18.9699993134,0.0,100.900001526,18.1000003815,6.76999998093,-6.90000009537,12.8900003433
"2009-09-04 02:00:00",18.3199996948,0.0,101.0,14.6000003815,6.82999992371,-6.80000019073,12.8699998856
"2009-09-04 03:00:00",18.2000007629,0.0,100.900001526,8.89999961853,6.92999982834,-6.80000019073,12.8400001526
"2009-09-04 04:00:00",17.7700004578,0.0,101.0,9.89999961853,6.90999984741,-6.80000019073,12.8199996948
"2009-09-04 05:00:00",17.4699993134,0.0,100.800003052,8.19999980927,6.94000005722,-6.80000019073,12.7899999619
"2009-09-04 06:00:00",17.0799999237,0.0,100.900001526,8.89999961853,6.92999982834,-6.80000019073,12.7700004578
"2009-09-04 07:00:00",16.5300006866,0.0,101.199996948,8.60000038147,6.92999982834,-6.69999980927,12.7399997711
"2009-09-04 08:00:00",15.8900003433,0.0,101.300003052,5.80000019073,6.98000001907,-6.69999980927,12.7299995422
"2009-09-04 09:00:00",15.4799995422,0.0,101.400001526,5.40000009537,6.98999977112,-6.80000019073,12.720000267
"2009-09-04 10:00:00",15.1700000763,0.0,101.300003052,1.89999997616,7.05000019073,-6.69999980927,12.7100000381
"2009-09-04 11:00:00",15.5200004578,0.0,101.599998474,2.09999990463,7.05000019073,-6.69999980927,12.6999998093
"2009-09-04 12:00:00",16.7399997711,0.0010000000475,100.599998474,-6.40000009537,7.19999980927,-6.80000019073,12.8199996948
"2009-09-04 13:00:00",18.4200000763,0.0,100.599998474,2.20000004768,7.03999996185,-6.80000019073,13.1000003815
"2009-09-04 14:00:00",20.2600002289,0.0,97.8000030518,16.7999992371,6.78999996185,-7.30000019073,13.4399995804
"2009-09-04 15:00:00",22.5799999237,0.0,95.4000015259,23.1000003815,6.67999982834,-7.40000009537,13.8699998856
"2009-09-04 16:00:00",26.4899997711,0.0,94.0,29.2999992371,6.57999992371,-7.5,13.8400001526
"2009-09-04 17:00:00",28.2000007629,0.0,96.0,33.0999984741,6.51999998093,-7.5,13.0900001526
"2009-09-04 18:00:00",27.8500003815,0.0,98.0999984741,32.5999984741,6.53000020981,-7.40000009537,13.0900001526
"2009-09-04 19:00:00",29.9799995422,0.0,96.1999969482,33.0,6.51999998093,-7.5,13.0900001526
"2009-09-04 20:00:00",25.25,0.0,99.8000030518,29.2000007629,6.57999992371,-7.30000019073,13.1000003815
"2009-09-04 21:00:00",24.1700000763,0.0,99.6999969482,23.6000003815,6.67999982834,-7.19999980927,13.6099996567
"2009-09-04 22:00:00",22.6700000763,0.0,99.5999984741,16.1000003815,6.80000019073,-7.19999980927,13.0100002289
"2009-09-04 23:00:00",21.2800006866,0.0,100.699996948,18.2999992371,6.76999998093,-7.09999990463,12.9399995804
"2009-09-05 00:00:00",20.25,0.0,101.0,13.8999996185,6.84000015259,-7.0,12.9099998474
"2009-09-05 01:00:00",19.5200004578,0.0,101.099998474,9.19999980927,6.92000007629,-6.90000009537,12.8900003433
"2009-09-05 02:00:00",18.9599990845,0.0,101.099998474,8.30000019073,6.94000005722,-6.90000009537,12.8699998856
"2009-09-05 03:00:00",18.3899993896,0.0,101.199996948,2.29999995232,7.03999996185,-6.90000009537,12.8400001526
"2009-09-05 04:00:00",17.9500007629,0.0,101.400001526,-2.20000004768,7.11999988556,-6.90000009537,12.8199996948
"2009-09-05 05:00:00",17.4500007629,0.0,101.300003052,-0.5,7.09000015259,-6.90000009537,12.779999733
"2009-09-05 06:00:00",17.0400009155,0.0,101.0,-0.5,7.09000015259,-6.90000009537,12.7600002289
"2009-09-05 07:00:00",16.6200008392,0.0,101.599998474,0.300000011921,7.07999992371,-6.90000009537,12.7299995422
"2009-09-05 08:00:00",16.3400001526,0.0,101.599998474,-2.09999990463,7.11999988556,-6.90000009537,12.720000267
"2009-09-05 09:00:00",16.1100006104,0.0010000000475,101.199996948,-3.70000004768,7.15000009537,-6.90000009537,12.7100000381
"2009-09-05 10:00:00",15.720000267,0.0010000000475,101.800003052,-2.59999990463,7.13000011444,-5.40000009537,12.6999998093
"2009-09-05 11:00:00",15.8699998856,0.0010000000475,101.0,-12.1000003815,7.30000019073,-6.90000009537,12.6899995804
"2009-09-05 12:00:00",16.9300003052,0.0010000000475,100.900001526,-14.1000003815,7.32999992371,-6.90000009537,12.7299995422
"2009-09-05 13:00:00",18.7999992371,0.0010000000475,100.5,-14.8000001907,7.34000015259,-7.0,12.9200000763
"2009-09-05 14:00:00",20.7099990845,0.0,100.0,-2.40000009537,7.11999988556,-7.09999990463,13.4499998093
"2009-09-05 15:00:00",23.3500003815,0.0,99.6999969482,18.2999992371,6.76999998093,-7.19999980927,13.8500003815
"2009-09-05 16:00:00",27.9400005341,0.0,98.5999984741,26.2000007629,6.63999986649,-7.40000009537,13.7899999619
"2009-09-05 17:00:00",31.0699996948,0.0,96.5999984741,28.2999992371,6.59999990463,-7.59999990463,13.029999733
"2009-09-05 18:00:00",30.3799991608,0.0,98.5999984741,28.2999992371,6.59999990463,-7.59999990463,13.0100002289
"2009-09-05 19:00:00",30.5599994659,0.0,98.4000015259,31.7999992371,6.53999996185,-7.59999990463,13.0100002289
"2009-09-05 20:00:00",26.0599994659,0.0,100.599998474,26.2999992371,6.63000011444,-7.30000019073,13.1899995804
"2009-09-05 21:00:00",24.9699993134,0.0,100.300003052,13.1999998093,6.86000013351,-7.19999980927,13.6300001144
"2009-09-05 22:00:00",24.0300006866,0.0,100.400001526,11.8000001907,6.88000011444,-7.19999980927,13.0799999237
"2009-09-05 23:00:00",22.9200000763,0.0,100.800003052,8.10000038147,6.94000005722,-7.09999990463,12.9200000763
"2009-09-06 00:00:00",21.9899997711,0.0,101.199996948,7.0,6.96000003815,-7.09999990463,12.8999996185
"2009-09-06 01:00:00",21.4500007629,0.0,100.900001526,-0.20000000298,7.09000015259,-7.0,12.8900003433
"2009-09-06 02:00:00",20.9200000763,0.0,101.0,-0.800000011921,7.09999990463,-7.0,12.8400001526
"2009-09-06 03:00:00",20.4400005341,0.0,101.199996948,-1.60000002384,7.11000013351,-7.0,12.8500003815
"2009-09-06 04:00:00",20.0599994659,0.0,101.300003052,-7.0,7.21000003815,-7.0,12.8199996948
"2009-09-06 05:00:00",19.5,0.0,101.5,-7.0,7.21000003815,-6.90000009537,12.8000001907
"2009-09-06 06:00:00",19.2299995422,0.0,101.199996948,-10.1000003815,7.26000022888,-6.90000009537,12.7700004578
"2009-09-06 07:00:00",18.9899997711,0.0,101.5,-12.6000003815,7.30000019073,-7.0,12.7600002289
"2009-09-06 08:00:00",18.4799995422,0.0,101.400001526,-10.6000003815,7.26999998093,-6.90000009537,12.7299995422
"2009-09-06 09:00:00",18.3400001526,0.0010000000475,101.699996948,-8.89999961853,7.23999977112,-6.90000009537,12.720000267
"2009-09-06 10:00:00",18.0300006866,0.0010000000475,101.599998474,-14.6000003815,7.34000015259,-7.0,12.6999998093
"2009-09-06 11:00:00",18.3199996948,0.0010000000475,65.1999969482,-17.2999992371,7.38999986649,-4.40000009537,12.6999998093
"2009-09-06 12:00:00",19.0100002289,0.0010000000475,100.699996948,-19.2000007629,7.42000007629,-6.19999980927,12.75
"2009-09-06 13:00:00",20.6299991608,0.0,99.6999969482,-16.2999992371,7.36999988556,-6.19999980927,13.1400003433
"2009-09-06 14:00:00",21.9699993134,0.0,99.0,-3.79999995232,7.15000009537,-5.19999980927,13.9600000381
"2009-09-06 15:00:00",23.6100006104,0.0,98.0999984741,13.6999998093,6.84999990463,-7.19999980927,13.8500003815
"2009-09-06 16:00:00",27.1200008392,0.0,96.4000015259,18.0,6.76999998093,-7.5,13.8199996948
"2009-09-06 17:00:00",29.6700000763,0.0,96.4000015259,22.7000007629,6.69999980927,-7.59999990463,13.0699996948
"2009-09-06 18:00:00",28.3600006104,0.0,98.6999969482,22.0,6.71000003815,-7.90000009537,13.0600004196
"2009-09-06 19:00:00",28.1399993896,0.0,98.4000015259,21.3999996185,6.71999979019,-7.80000019073,13.0600004196
"2009-09-06 20:00:00",25.5799999237,0.0,99.6999969482,15.5,6.82000017166,-7.59999990463,13.0799999237
"2009-09-06 21:00:00",24.7099990845,0.0,100.300003052,11.8999996185,6.88000011444,-7.5,13.5100002289
"2009-09-06 22:00:00",23.4699993134,0.0,100.400001526,6.90000009537,6.96000003815,-7.5,13.029999733
"2009-09-06 23:00:00",21.9599990845,0.0,100.800003052,5.69999980927,6.98000001907,-7.40000009537,12.9300003052
"2009-09-07 00:00:00",21.1200008392,0.0,101.5,7.5,6.94999980927,-7.30000019073,12.8999996185
"2009-09-07 01:00:00",20.3500003815,0.0,101.400001526,2.70000004768,7.03999996185,-7.19999980927,12.8900003433
"2009-09-07 02:00:00",19.7700004578,0.0,101.599998474,-1.70000004768,7.11000013351,-7.19999980927,12.8699998856
"2009-09-07 03:00:00",19.2900009155,0.0,101.699996948,0.20000000298,7.07999992371,-7.19999980927,12.8400001526
"2009-09-07 04:00:00",18.8400001526,0.0,101.599998474,-7.90000009537,7.21999979019,-7.09999990463,12.8199996948
"2009-09-07 05:00:00",18.3500003815,0.0,101.5,-9.10000038147,7.23999977112,-7.09999990463,12.7899999619
"2009-09-07 06:00:00",18.0200004578,0.0,101.5,-12.1000003815,7.30000019073,-7.09999990463,12.7600002289
"2009-09-07 07:00:00",18.0100002289,0.0,101.5,-13.8999996185,7.32999992371,-7.09999990463,12.7399997711
"2009-09-07 08:00:00",18.0799999237,0.0,101.599998474,-17.7999992371,7.40000009537,-7.09999990463,12.720000267
"2009-09-07 09:00:00",18.6299991608,0.0010000000475,101.099998474,-21.1000003815,7.44999980927,-7.09999990463,12.6899995804
"2009-09-07 10:00:00",18.7399997711,0.0010000000475,101.199996948,-20.5,7.44000005722,-7.19999980927,12.6800003052
"2009-09-07 11:00:00",19.1900005341,0.0010000000475,100.900001526,-23.7999992371,7.5,-7.19999980927,12.6899995804
"2009-09-07 12:00:00",19.9099998474,0.0010000000475,100.699996948,-20.5,7.44000005722,-7.19999980927,12.7399997711
"2009-09-07 13:00:00",20.4799995422,0.0010000000475,100.699996948,-16.5,7.36999988556,-7.19999980927,12.8699998856
"2009-09-07 14:00:00",20.9400005341,0.0,100.400001526,-14.1000003815,7.32999992371,-6.90000009537,13.0200004578
"2009-09-07 15:00:00",21.9699993134,0.0,98.9000015259,-8.5,7.23000001907,-6.09999990463,13.3100004196
"2009-09-07 16:00:00",23.3199996948,0.0,98.6999969482,-0.300000011921,7.09000015259,-5.69999980927,13.5500001907
"2009-09-07 17:00:00",22.6800003052,0.0,98.9000015259,-2.20000004768,7.11999988556,-6.69999980927,13.2899999619
"2009-09-07 18:00:00",24.0300006866,0.0,97.5999984741,3.09999990463,7.03000020981,-7.5,14.0100002289
"2009-09-07 19:00:00",24.25,0.0,97.5,8.80000019073,6.92999982834,-7.5,13.9499998093
"2009-09-07 20:00:00",23.1100006104,0.0,99.3000030518,-4.40000009537,7.15999984741,-6.0,13.1199998856
"2009-09-07 21:00:00",22.7399997711,0.0,99.3000030518,-4.19999980927,7.15999984741,-5.59999990463,14.0100002289
"2009-09-07 22:00:00",22.5499992371,0.0,99.3000030518,-4.90000009537,7.17000007629,-7.40000009537,13.029999733
"2009-09-07 23:00:00",21.8700008392,0.0,99.4000015259,-6.59999990463,7.19999980927,-7.40000009537,12.9200000763
"2009-09-08 00:00:00",21.6299991608,0.0,99.6999969482,-9.19999980927,7.23999977112,-7.40000009537,12.9099998474
"2009-09-08 01:00:00",21.0699996948,0.0010000000475,100.5,-33.2000007629,7.65999984741,-7.30000019073,12.8999996185
"2009-09-08 02:00:00",21.1100006104,0.391000002623,91.0999984741,-47.0999984741,7.90000009537,42.4000015259,12.8800001144
"2009-09-08 03:00:00",21.9200000763,0.21099999547,90.0,-41.0,7.78999996185,101.199996948,12.8599996567
"2009-09-08 04:00:00",21.25,0.00600000005215,84.8000030518,-53.2999992371,8.01000022888,72.5999984741,12.8299999237
"2009-09-08 05:00:00",20.8999996185,0.00499999988824,79.6999969482,-47.0999984741,7.90000009537,48.0,12.8199996948
"2009-09-08 06:00:00",20.8099994659,0.00499999988824,80.4000015259,-35.0999984741,7.69000005722,31.7999992371,12.7899999619
"2009-09-08 07:00:00",20.6399993896,0.00499999988824,100.0,-25.2000007629,7.51999998093,-5.90000009537,12.7700004578
"2009-09-08 08:00:00",20.5200004578,0.00499999988824,100.099998474,-16.1000003815,7.36000013351,-6.90000009537,12.7399997711
"2009-09-08 09:00:00",20.3099994659,0.00499999988824,100.300003052,-8.5,7.23000001907,-5.69999980927,12.7299995422
"2009-09-08 10:00:00",20.2900009155,0.00499999988824,100.099998474,-6.69999980927,7.19999980927,-3.40000009537,12.7100000381
"2009-09-08 11:00:00",20.3099994659,0.00499999988824,100.099998474,-5.90000009537,7.19000005722,-5.59999990463,12.6999998093
"2009-09-08 12:00:00",20.3899993896,0.00499999988824,100.199996948,-4.80000019073,7.17000007629,-6.30000019073,12.7399997711
"2009-09-08 13:00:00",20.8799991608,0.00400000018999,100.0,-6.5,7.19000005722,-6.90000009537,12.8999996185
"2009-09-08 14:00:00",21.3799991608,0.00400000018999,99.9000015259,-4.30000019073,7.15999984741,-3.79999995232,13.2899999619
"2009-09-08 15:00:00",21.7999992371,0.00400000018999,96.5999984741,2.20000004768,7.03999996185,-0.699999988079,13.6000003815
"2009-09-08 16:00:00",22.2399997711,0.00300000002608,99.4000015259,8.39999961853,6.94000005722,-5.5,14.0
"2009-09-08 17:00:00",24.1900005341,0.00200000009499,98.3000030518,8.10000038147,6.94000005722,-4.80000019073,13.9600000381
"2009-09-08 18:00:00",24.9500007629,0.0010000000475,97.8000030518,25.2000007629,6.65000009537,0.5,13.1700000763
"2009-09-08 19:00:00",26.8700008392,0.0,96.0999984741,42.0999984741,6.36000013351,-7.40000009537,13.1599998474
"2009-09-08 20:00:00",24.3099994659,0.0,98.4000015259,30.1000003815,6.55999994278,-7.40000009537,13.2399997711
"2009-09-08 21:00:00",23.2900009155,0.0,99.0999984741,29.1000003815,6.57999992371,-7.09999990463,13.0699996948
"2009-09-08 22:00:00",22.7299995422,0.0,99.8000030518,23.2000007629,6.67999982834,-7.40000009537,13.0100002289
"2009-09-08 23:00:00",21.7000007629,0.0,100.199996948,20.0,6.73999977112,-7.30000019073,12.9399995804
"2009-09-09 00:00:00",21.0300006866,0.0,100.400001526,15.3000001907,6.82000017166,-7.30000019073,12.9099998474
"2009-09-09 01:00:00",20.5200004578,0.0,101.099998474,14.5,6.82999992371,-7.19999980927,12.8900003433
"2009-09-09 02:00:00",20.0100002289,0.0,101.0,6.09999990463,6.98000001907,-7.09999990463,12.8699998856
"2009-09-09 03:00:00",20.0799999237,0.0010000000475,100.900001526,3.20000004768,7.03000020981,-6.90000009537,12.8500003815
"2009-09-09 04:00:00",20.2600002289,0.0010000000475,101.099998474,2.79999995232,7.03000020981,-7.09999990463,12.8100004196
"2009-09-09 05:00:00",20.1700000763,0.0,100.800003052,7.19999980927,6.96000003815,-7.19999980927,12.8000001907
"2009-09-09 06:00:00",20.0699996948,0.0,101.099998474,8.0,6.94000005722,-7.09999990463,12.779999733
"2009-09-09 07:00:00",19.8400001526,0.0,101.300003052,9.80000019073,6.90999984741,-7.19999980927,12.7600002289
"2009-09-09 08:00:00",18.9300003052,0.0,101.199996948,5.69999980927,6.98000001907,-7.09999990463,12.720000267
"2009-09-09 09:00:00",18.5200004578,0.0010000000475,101.599998474,1.29999995232,7.05999994278,-7.09999990463,12.7100000381
"2009-09-09 10:00:00",18.2199993134,0.0010000000475,101.300003052,-2.90000009537,7.13000011444,-7.0,12.6899995804
"2009-09-09 11:00:00",18.3899993896,0.0010000000475,101.699996948,-2.59999990463,7.13000011444,-7.0,12.6899995804
"2009-09-09 12:00:00",19.0,0.0010000000475,101.199996948,-8.39999961853,7.23000001907,-7.0,12.7299995422
"2009-09-09 13:00:00",20.1399993896,0.0,100.800003052,2.09999990463,7.05000019073,-7.09999990463,13.029999733
"2009-09-09 14:00:00",21.0,0.0,100.599998474,25.2000007629,6.65000009537,-7.0,13.6599998474
"2009-09-09 15:00:00",22.2199993134,0.0,104.300003052,23.2000007629,6.67999982834,-5.09999990463,13.9200000763
"2009-09-09 16:00:00",25.5900001526,0.0,95.8000030518,30.7000007629,6.55999994278,-5.59999990463,13.8999996185
"2009-09-09 17:00:00",28.8299999237,0.0,94.1999969482,32.0,6.53999996185,-7.69999980927,13.1300001144
"2009-09-09 18:00:00",29.8799991608,0.0,93.5,37.0,6.46000003815,-7.90000009537,13.1000003815
"2009-09-09 19:00:00",30.0699996948,0.0,95.8000030518,41.2000007629,6.38999986649,-7.90000009537,13.1000003815
"2009-09-09 20:00:00",25.2399997711,0.0,99.9000015259,30.7000007629,6.55999994278,-7.5,13.1300001144
"2009-09-09 21:00:00",23.5400009155,0.0,100.5,28.0,6.59999990463,-7.40000009537,13.0799999237
"2009-09-09 22:00:00",22.6499996185,0.0,100.5,19.6000003815,6.73999977112,-7.40000009537,12.9899997711
"2009-09-09 23:00:00",21.4899997711,0.0,101.099998474,19.3999996185,6.75,-7.30000019073,12.9399995804
"2009-09-10 00:00:00",20.9400005341,0.0,101.199996948,13.6999998093,6.84000015259,-7.30000019073,12.9099998474
"2009-09-10 01:00:00",20.5599994659,0.0,101.300003052,12.6000003815,6.86000013351,-7.19999980927,12.8900003433
"2009-09-10 02:00:00",20.8700008392,0.0,100.900001526,7.69999980927,6.94999980927,-7.19999980927,12.8800001144
"2009-09-10 03:00:00",20.6100006104,0.0,101.300003052,6.19999980927,6.96999979019,-7.19999980927,12.8500003815
"2009-09-10 04:00:00",20.5699996948,0.0,101.0,6.09999990463,6.98000001907,-7.19999980927,12.8299999237
"2009-09-10 05:00:00",20.1399993896,0.0,101.199996948,8.5,6.92999982834,-7.09999990463,12.8000001907